Details From CYPX - Puvirnituq
To CYYQ - Churchill
Flight Number -
Tags Standard
Created
Modified
Stats Distance 522 nm / 967 km
Max Altitude 35,000 ft / 10,668 m
Waypoints 5
Social Downloads 38
Likes 0
Share

Download

Looking for another format? Having issues loading an existing format? Contact us
Advertisement - Login to hide

Notes

None

Route

CYPX MIBNA VIMSA YYQ CYYQ

ID Type Via Altitude (ft/m) Position (lat/lon) Dist (leg/tot) Name
O CYPX APT - 74 / 23 60.05042 / -77.28694 - / 0 nm PUVIRNITUQ
MIBNA FIX - 35,000 / 10,668 60.08333 / -80.00000 81 / 81 nm
VIMSA FIX - 35,000 / 10,668 59.16667 / -90.00000 308 / 389 nm
YYQ VOR - 1,427 / 435 58.74167 / -94.13528 130 / 520 nm CHURCHILL VOR-DME
O CYYQ APT - 94 / 29 58.73450 / -94.06657 2 / 522 nm

Altitude Profile

Advertisement - Login to hide

Weather


0- 5 10 15 20 25 30 35+ Temperature / °C

Clouds and Precipitation
Forecast for 2022-11-28 00:00 UTC. Updated 4 hours ago

Ground ~20,000 ft ~40,000 ft Winds

CYPX

Details ICAO CYPX (YPX)
Name PUVIRNITUQ
Region Canada
Timezone America/Montreal (UTC-5.0)
Stats Elevation 74 ft / 23 m (AMSL)
Location 60.050400° -77.286900°
Runways 1
Magnetic Variation 18.700° W

METAR

CYPX 280100Z AUTO 34018KT 9SM CLR M15/M18 A2979 RMK SLP091

Decode

TAF

TAF CYPX 272340Z 2800/2812 34015KT P6SM FEW020 SCT190 FM280400 32015KT P6SM SCT020 TEMPO 2804/2812 5SM -SN BKN020 RMK FCST BASED ON AUTO OBS. NXT FCST BY 280600Z

Decode

Departure Runways

ID Width Length Bearing (true/mag) Surface Threshold Overrun Markings Lighting
01 100 ft / 30 m 4,971 ft / 1,515 m 343.44° / 2.14° GRAVEL 0 ft / 0 m 0 ft / 0 m VISUAL EDGE THRESHOLD REIL-OMNI
19 100 ft / 30 m 4,971 ft / 1,515 m 163.44° / 182.14° GRAVEL 0 ft / 0 m 0 ft / 0 m VISUAL EDGE THRESHOLD TDZ REIL-OMNI

CYYQ

Details ICAO CYYQ (YYQ)
Name CHURCHILL
Region Canada
Timezone America/Winnipeg (UTC-6.0)
Stats Elevation 94 ft / 29 m (AMSL)
Location 58.744000° -94.063900°
Runways 2
Magnetic Variation 2.032° W

METAR

CYYQ 280100Z 06005KT 15SM -SN OVC060 M07/M09 A3005 RMK SC8 SLP179

Decode

TAF

TAF CYYQ 272340Z 2800/2824 09010KT P6SM OVC060 FM281000 09008KT P6SM SCT020 OVC060 FM281500 12008KT P6SM SKC RMK NXT FCST BY 280600Z

Decode

Destination Runways

ID Width Length Bearing (true/mag) Surface Threshold Overrun Markings Lighting
07 100 ft / 30 m 3,988 ft / 1,215 m 70.97° / 73.01° GRAVEL 0 ft / 0 m 0 ft / 0 m VISUAL EDGE THRESHOLD
15 160 ft / 49 m 9,178 ft / 2,797 m 152.64° / 154.67° ASPHALT 0 ft / 0 m 0 ft / 0 m APP EDGE THRESHOLD REIL-OMNI
25 100 ft / 30 m 3,988 ft / 1,215 m 250.99° / 253.02° GRAVEL 0 ft / 0 m 0 ft / 0 m VISUAL EDGE THRESHOLD REIL-OMNI
33 160 ft / 49 m 9,178 ft / 2,797 m 332.66° / 334.69° ASPHALT 0 ft / 0 m 0 ft / 0 m APP EDGE THRESHOLD SSALR

Popular Alternatives